| time (UTC) | temp C | wind direction | speed KPH | gust KPH | rain 1hr cm | rain 24hr cm | rain mn cm | humidity % | barometer mb |
| 20260503225113 | 15 | 253 | 14.5 | 30.6 | 0.00 | 0.00 | 0.00 | 36 | 1011.1 |
| 20260503224611 | 15 | 210 | 3.2 | 24.1 | 0.00 | 0.00 | 0.00 | 36 | 1011.3 |
| 20260503224109 | 15 | 250 | 16.1 | 27.4 | 0.00 | 0.00 | 0.00 | 36 | 1011.0 |
| 20260503223607 | 15 | 247 | 12.9 | 38.6 | 0.00 | 0.00 | 0.00 | 36 | 1011.1 |
| 20260503223102 | 15 | 244 | 9.7 | 24.1 | 0.00 | 0.00 | 0.00 | 36 | 1011.1 |
| 20260503222600 | 15 | 271 | 16.1 | 29.0 | 0.00 | 0.00 | 0.00 | 35 | 1011.2 |
| 20260503222058 | 15 | 200 | 4.8 | 32.2 | 0.00 | 0.00 | 0.00 | 37 | 1011.3 |
| 20260503221555 | 15 | 232 | 9.7 | 25.7 | 0.00 | 0.00 | 0.00 | 36 | 1011.3 |
| 20260503221053 | 15 | 261 | 17.7 | 40.2 | 0.00 | 0.00 | 0.00 | 36 | 1011.3 |
| 20260503220549 | 15 | 261 | 1.6 | 22.5 | 0.00 | 0.00 | 0.00 | 36 | 1011.2 |
| 20260503220046 | 16 | 260 | 12.9 | 20.9 | 0.00 | 0.00 | 0.00 | 33 | 1011.2 |
| 20260503215543 | 16 | 282 | 3.2 | 17.7 | 0.00 | 0.00 | 0.00 | 36 | 1011.2 |
| 20260503215040 | 15 | 286 | 9.7 | 16.1 | 0.00 | 0.00 | 0.00 | 37 | 1011.1 |
| 20260503214538 | 15 | 253 | 17.7 | 32.2 | 0.00 | 0.00 | 0.00 | 36 | 1011.3 |
| 20260503214034 | 15 | 237 | 14.5 | 41.8 | 0.00 | 0.00 | 0.00 | 35 | 1011.3 |
| 20260503213533 | 15 | 252 | 24.1 | 38.6 | 0.00 | 0.00 | 0.00 | 35 | 1011.2 |
| 20260503213029 | 15 | 254 | 14.5 | 27.4 | 0.00 | 0.00 | 0.00 | 36 | 1011.3 |
| 20260503212527 | 15 | 234 | 11.3 | 38.6 | 0.00 | 0.00 | 0.00 | 34 | 1011.4 |
| 20260503212024 | 15 | 258 | 27.4 | 35.4 | 0.00 | 0.00 | 0.00 | 34 | 1011.3 |
| 20260503211521 | 15 | 250 | 9.7 | 33.8 | 0.00 | 0.00 | 0.00 | 35 | 1011.4 |
| 20260503211017 | 15 | 250 | 11.3 | 43.5 | 0.00 | 0.00 | 0.00 | 36 | 1011.4 |
| 20260503210514 | 15 | 222 | 8.0 | 33.8 | 0.00 | 0.00 | 0.00 | 35 | 1011.3 |
| 20260503210009 | 15 | 255 | 8.0 | 30.6 | 0.00 | 0.00 | 0.00 | 35 | 1011.5 |
| 20260503205506 | 15 | 240 | 16.1 | 32.2 | 0.00 | 0.00 | 0.00 | 34 | 1011.4 |
| 20260503205002 | 15 | 257 | 6.4 | 40.2 | 0.00 | 0.00 | 0.00 | 35 | 1011.5 |
| 20260503204500 | 15 | 277 | 9.7 | 25.7 | 0.00 | 0.00 | 0.00 | 34 | 1011.1 |
| 20260503203956 | 16 | 234 | 6.4 | 22.5 | 0.00 | 0.00 | 0.00 | 34 | 1011.1 |
| 20260503203454 | 16 | 254 | 16.1 | 37.0 | 0.00 | 0.00 | 0.00 | 33 | 1011.2 |
| 20260503202950 | 16 | 277 | 8.0 | 30.6 | 0.00 | 0.00 | 0.00 | 32 | 1011.2 |
| 20260503202448 | 16 | 208 | 4.8 | 27.4 | 0.00 | 0.00 | 0.00 | 33 | 1011.6 |
| 20260503201946 | 15 | 274 | 8.0 | 32.2 | 0.00 | 0.00 | 0.00 | 34 | 1011.6 |
| 20260503201444 | 15 | 264 | 3.2 | 25.7 | 0.00 | 0.00 | 0.00 | 34 | 1011.5 |
| 20260503200941 | 16 | 198 | 6.4 | 25.7 | 0.00 | 0.00 | 0.00 | 33 | 1011.8 |
| 20260503200437 | 16 | 197 | 8.0 | 25.7 | 0.00 | 0.00 | 0.00 | 32 | 1011.8 |
| 20260503195934 | 15 | 251 | 11.3 | 43.5 | 0.00 | 0.00 | 0.00 | 34 | 1011.9 |
| 20260503195432 | 16 | 141 | 6.4 | 22.5 | 0.00 | 0.00 | 0.00 | 34 | 1011.9 |
| 20260503194928 | 15 | 243 | 9.7 | 32.2 | 0.00 | 0.00 | 0.00 | 33 | 1011.9 |
| 20260503194425 | 15 | 253 | 16.1 | 33.8 | 0.00 | 0.00 | 0.00 | 33 | 1012.1 |
| 20260503193920 | 15 | 295 | 4.8 | 22.5 | 0.00 | 0.00 | 0.00 | 36 | 1012.4 |
| 20260503193416 | 16 | 254 | 20.9 | 40.2 | 0.00 | 0.00 | 0.00 | 35 | 1012.1 |
| 20260503192912 | 16 | 242 | 20.9 | 22.5 | 0.00 | 0.00 | 0.00 | 36 | 1012.2 |
| 20260503192408 | 15 | 272 | 6.4 | 25.7 | 0.00 | 0.00 | 0.00 | 37 | 1012.5 |
| 20260503191904 | 15 | 249 | 4.8 | 17.7 | 0.00 | 0.00 | 0.00 | 37 | 1012.4 |
| 20260503191401 | 15 | 251 | 12.9 | 22.5 | 0.00 | 0.00 | 0.00 | 35 | 1012.5 |
| 20260503190858 | 16 | 254 | 4.8 | 25.7 | 0.00 | 0.00 | 0.00 | 34 | 1012.5 |
| 20260503190355 | 15 | 297 | 8.0 | 30.6 | 0.00 | 0.00 | 0.00 | 35 | 1012.7 |
| 20260503185852 | 16 | 252 | 8.0 | 30.6 | 0.00 | 0.00 | 0.00 | 35 | 1012.9 |
| 20260503185348 | 15 | 224 | 4.8 | 48.3 | 0.00 | 0.00 | 0.00 | 35 | 1013.0 |
| 20260503184848 | 15 | 190 | 6.4 | 24.1 | 0.00 | 0.00 | 0.00 | 35 | 1012.7 |
| 20260503184344 | 15 | 260 | 17.7 | 35.4 | 0.00 | 0.00 | 0.00 | 34 | 1012.9 |
| 20260503183840 | 15 | 249 | 17.7 | 32.2 | 0.00 | 0.00 | 0.00 | 34 | 1013.1 |
| 20260503183338 | 15 | 273 | 12.9 | 45.1 | 0.00 | 0.00 | 0.00 | 34 | 1013.0 |
| 20260503182835 | 15 | 243 | 11.3 | 22.5 | 0.00 | 0.00 | 0.00 | 37 | 1013.0 |
| 20260503182334 | 15 | 250 | 24.1 | 32.2 | 0.00 | 0.00 | 0.00 | 36 | 1013.0 |
| 20260503181831 | 16 | 228 | 17.7 | 30.6 | 0.00 | 0.00 | 0.00 | 34 | 1013.1 |
| 20260503181328 | 15 | 186 | 9.7 | 38.6 | 0.00 | 0.00 | 0.00 | 37 | 1013.0 |
| 20260503180824 | 16 | 232 | 20.9 | 29.0 | 0.00 | 0.00 | 0.00 | 36 | 1013.0 |
| 20260503180322 | 15 | 248 | 6.4 | 29.0 | 0.00 | 0.00 | 0.00 | 38 | 1013.4 |
| 20260503175818 | 15 | 260 | 11.3 | 33.8 | 0.00 | 0.00 | 0.00 | 37 | 1013.3 |
| 20260503175316 | 15 | 255 | 20.9 | 33.8 | 0.00 | 0.00 | 0.00 | 36 | 1013.5 |
| 20260503174812 | 16 | 268 | 9.7 | 38.6 | 0.00 | 0.00 | 0.00 | 37 | 1013.7 |
| 20260503174310 | 15 | 271 | 9.7 | 40.2 | 0.00 | 0.00 | 0.00 | 40 | 1013.4 |
| 20260503173805 | 15 | 297 | 6.4 | 17.7 | 0.00 | 0.00 | 0.00 | 40 | 1013.5 |
| 20260503173301 | 15 | 156 | 6.4 | 32.2 | 0.00 | 0.00 | 0.00 | 37 | 1013.6 |
| 20260503172758 | 15 | 225 | 8.0 | 29.0 | 0.00 | 0.00 | 0.00 | 40 | 1013.7 |
| 20260503172256 | 15 | 253 | 16.1 | 17.7 | 0.00 | 0.00 | 0.00 | 41 | 1013.7 |
| 20260503171752 | 15 | 230 | 11.3 | 33.8 | 0.00 | 0.00 | 0.00 | 37 | 1013.8 |
| 20260503171249 | 15 | 237 | 19.3 | 27.4 | 0.00 | 0.00 | 0.00 | 39 | 1013.8 |
| 20260503170746 | 15 | 168 | 6.4 | 35.4 | 0.00 | 0.00 | 0.00 | 41 | 1013.9 |
| 20260503170243 | 15 | 237 | 8.0 | 33.8 | 0.00 | 0.00 | 0.00 | 40 | 1014.0 |
| 20260503160205 | 13 | 239 | 8.0 | 30.6 | 0.00 | 0.00 | 0.00 | 40 | 1014.5 |
| 20260503150635 | 12 | 237 | 4.8 | 20.9 | 0.00 | 0.00 | 0.00 | 42 | 1015.0 |
| 20260503150131 | 12 | 267 | 11.3 | 27.4 | 0.00 | 0.00 | 0.00 | 40 | 1015.1 |
| 20260503131025 | 9 | 184 | 4.8 | 12.9 | 0.00 | 0.00 | 0.00 | 47 | 1015.7 |
| 20260503130522 | 8 | 144 | 4.8 | 20.9 | 0.00 | 0.00 | 0.00 | 49 | 1015.4 |
| 20260503110412 | 2 | 234 | 3.2 | 6.4 | 0.00 | 0.00 | 0.00 | 73 | 1015.1 |
| 20260503090309 | 2 | 239 | 3.2 | 6.4 | 0.00 | 0.00 | 0.00 | 76 | 1014.7 |
| 20260503081242 | 2 | 173 | 0.0 | 8.0 | 0.00 | 0.00 | 0.00 | 76 | 1015.2 |
| 20260503080737 | 2 | 213 | 3.2 | 8.0 | 0.00 | 0.00 | 0.00 | 76 | 1015.0 |
| 20260503080235 | 2 | 311 | 0.0 | 8.0 | 0.00 | 0.00 | 0.00 | 76 | 1014.8 |
| 20260503072712 | 2 | 253 | 3.2 | 9.7 | 0.00 | 0.00 | 0.00 | 78 | 1014.8 |
| 20260503072208 | 2 | 240 | 0.0 | 6.4 | 0.00 | 0.00 | 0.00 | 79 | 1014.9 |
| 20260503071705 | 2 | 190 | 1.6 | 6.4 | 0.00 | 0.00 | 0.00 | 78 | 1014.9 |
| 20260503071202 | 2 | 215 | 0.0 | 6.4 | 0.00 | 0.00 | 0.00 | 79 | 1014.9 |
| 20260503070659 | 2 | 242 | 1.6 | 6.4 | 0.00 | 0.00 | 0.00 | 79 | 1014.8 |
| 20260503070157 | 2 | 228 | 0.0 | 3.2 | 0.00 | 0.00 | 0.00 | 80 | 1015.0 |
| 20260503060121 | 3 | 243 | 6.4 | 9.7 | 0.00 | 0.00 | 0.00 | 78 | 1014.9 |
| 20260503055113 | 3 | 180 | 0.0 | 4.8 | 0.00 | 0.00 | 0.00 | 78 | 1015.3 |
| 20260503054609 | 3 | 209 | 1.6 | 6.4 | 0.00 | 0.00 | 0.00 | 78 | 1015.2 |
| 20260503054106 | 3 | 173 | 0.0 | 4.8 | 0.00 | 0.00 | 0.00 | 78 | 1015.1 |
| 20260503053604 | 3 | 205 | 3.2 | 8.0 | 0.00 | 0.00 | 0.00 | 78 | 1015.2 |
| 20260503053102 | 3 | 159 | 1.6 | 4.8 | 0.00 | 0.00 | 0.00 | 79 | 1015.4 |
| 20260503052558 | 3 | 211 | 1.6 | 3.2 | 0.00 | 0.00 | 0.00 | 79 | 1015.3 |
| 20260503052055 | 3 | 222 | 0.0 | 3.2 | 0.00 | 0.00 | 0.00 | 79 | 1015.2 |
| 20260503051550 | 3 | 166 | 0.0 | 3.2 | 0.00 | 0.00 | 0.00 | 79 | 1015.2 |
| 20260503051048 | 3 | 224 | 0.0 | 3.2 | 0.00 | 0.00 | 0.00 | 79 | 1015.2 |
| 20260503050543 | 3 | 246 | 3.2 | 4.8 | 0.00 | 0.00 | 0.00 | 79 | 1015.3 |
| 20260503050041 | 3 | 122 | 0.0 | 3.2 | 0.00 | 0.00 | 0.00 | 79 | 1015.2 |
| 20260503045538 | 3 | 232 | 0.0 | 4.8 | 0.00 | 0.00 | 0.00 | 78 | 1015.5 |
| 20260503045035 | 3 | 168 | 1.6 | 3.2 | 0.00 | 0.00 | 0.00 | 78 | 1015.4 |
| 20260503044532 | 3 | 228 | 0.0 | 3.2 | 0.00 | 0.00 | 0.00 | 78 | 1015.5 |
| 20260503044030 | 3 | 237 | 0.0 | 3.2 | 0.00 | 0.00 | 0.00 | 78 | 1015.4 |
| 20260503043525 | 3 | 188 | 0.0 | 3.2 | 0.00 | 0.00 | 0.00 | 78 | 1015.3 |
| 20260503043022 | 3 | 150 | 0.0 | 4.8 | 0.00 | 0.00 | 0.00 | 77 | 1015.4 |
| 20260503042519 | 3 | 289 | 1.6 | 3.2 | 0.00 | 0.00 | 0.00 | 77 | 1015.6 |
| 20260503042015 | 3 | 302 | 0.0 | 3.2 | 0.00 | 0.00 | 0.00 | 76 | 1015.4 |
| 20260503041512 | 4 | 229 | 0.0 | 4.8 | 0.00 | 0.00 | 0.00 | 75 | 1015.4 |
| 20260503041010 | 4 | 157 | 0.0 | 3.2 | 0.00 | 0.00 | 0.00 | 75 | 1015.6 |
| 20260503040507 | 4 | 131 | 0.0 | 6.4 | 0.00 | 0.00 | 0.00 | 74 | 1015.5 |
| 20260503040004 | 5 | 212 | 0.0 | 6.4 | 0.00 | 0.56 | 0.56 | 74 | 1015.5 |
| 20260503035501 | 5 | 89 | 0.0 | 4.8 | 0.00 | 0.56 | 0.56 | 73 | 1015.5 |
| 20260503034959 | 5 | 236 | 1.6 | 4.8 | 0.00 | 0.56 | 0.56 | 73 | 1015.4 |
| 20260503034456 | 5 | 240 | 1.6 | 8.0 | 0.00 | 0.56 | 0.56 | 73 | 1015.6 |
| 20260503033953 | 5 | 165 | 1.6 | 3.2 | 0.00 | 0.56 | 0.56 | 73 | 1015.6 |
| 20260503033450 | 5 | 185 | 1.6 | 9.7 | 0.00 | 0.56 | 0.56 | 73 | 1015.4 |
| 20260503032948 | 5 | 227 | 3.2 | 6.4 | 0.00 | 0.56 | 0.56 | 72 | 1015.7 |
| 20260503032446 | 5 | 247 | 3.2 | 6.4 | 0.00 | 0.56 | 0.56 | 72 | 1015.6 |
| 20260503031943 | 5 | 162 | 0.0 | 6.4 | 0.00 | 0.56 | 0.56 | 72 | 1015.7 |
| 20260503031441 | 5 | 189 | 0.0 | 4.8 | 0.00 | 0.56 | 0.56 | 71 | 1015.6 |
| 20260503030937 | 5 | 258 | 1.6 | 8.0 | 0.00 | 0.56 | 0.56 | 71 | 1015.6 |
| 20260503030434 | 5 | 137 | 1.6 | 6.4 | 0.00 | 0.56 | 0.56 | 71 | 1015.8 |
| 20260503025931 | 5 | 243 | 1.6 | 8.0 | 0.00 | 0.56 | 0.56 | 71 | 1015.7 |
| 20260503025428 | 5 | 127 | 1.6 | 6.4 | 0.00 | 0.56 | 0.56 | 70 | 1015.6 |
| 20260503024926 | 5 | 257 | 6.4 | 6.4 | 0.00 | 0.56 | 0.56 | 71 | 1015.8 |
| 20260503024422 | 5 | 116 | 0.0 | 3.2 | 0.00 | 0.56 | 0.56 | 71 | 1015.8 |
| 20260503023919 | 5 | 120 | 0.0 | 3.2 | 0.00 | 0.56 | 0.56 | 70 | 1015.8 |
| 20260503023416 | 5 | 112 | 1.6 | 4.8 | 0.00 | 0.56 | 0.56 | 71 | 1015.6 |
| 20260503022913 | 5 | 199 | 0.0 | 4.8 | 0.00 | 0.56 | 0.56 | 70 | 1016.0 |
| 20260503022408 | 5 | 153 | 1.6 | 4.8 | 0.00 | 0.56 | 0.56 | 71 | 1016.0 |
| 20260503021904 | 5 | 211 | 1.6 | 3.2 | 0.00 | 0.56 | 0.56 | 70 | 1015.9 |
| 20260503021400 | 5 | 106 | 1.6 | 3.2 | 0.00 | 0.56 | 0.56 | 70 | 1015.8 |
| 20260503020857 | 5 | 157 | 1.6 | 3.2 | 0.00 | 0.56 | 0.56 | 71 | 1015.9 |
| 20260503020355 | 5 | 112 | 0.0 | 3.2 | 0.00 | 0.56 | 0.56 | 72 | 1016.0 |
| 20260503015851 | 5 | 136 | 1.6 | 3.2 | 0.00 | 0.56 | 0.56 | 73 | 1015.9 |
| 20260503015348 | 5 | 135 | 0.0 | 3.2 | 0.00 | 0.56 | 0.56 | 73 | 1016.1 |
| 20260503014844 | 5 | 135 | 0.0 | 3.2 | 0.00 | 0.56 | 0.56 | 73 | 1016.1 |
| 20260503014342 | 5 | 135 | 0.0 | 4.8 | 0.00 | 0.56 | 0.56 | 72 | 1016.0 |
| 20260503013839 | 5 | 144 | 0.0 | 1.6 | 0.00 | 0.56 | 0.56 | 72 | 1015.7 |
| 20260503013336 | 5 | 135 | 0.0 | 1.6 | 0.00 | 0.56 | 0.56 | 73 | 1015.5 |
| 20260503012833 | 5 | 120 | 0.0 | 3.2 | 0.00 | 0.56 | 0.56 | 73 | 1015.9 |
| 20260503012331 | 5 | 135 | 0.0 | 1.6 | 0.00 | 0.56 | 0.56 | 73 | 1015.9 |
| 20260503011828 | 5 | 125 | 1.6 | 3.2 | 0.00 | 0.56 | 0.56 | 71 | 1015.9 |
| 20260503011325 | 5 | 116 | 0.0 | 3.2 | 0.00 | 0.56 | 0.56 | 70 | 1015.8 |
| 20260503010821 | 5 | 89 | 0.0 | 3.2 | 0.00 | 0.56 | 0.56 | 71 | 1015.9 |
| 20260503010319 | 5 | 128 | 0.0 | 4.8 | 0.00 | 0.56 | 0.56 | 70 | 1015.9 |
| 20260503005815 | 5 | 115 | 3.2 | 4.8 | 0.00 | 0.56 | 0.56 | 70 | 1015.8 |
| 20260503005313 | 5 | 75 | 1.6 | 3.2 | 0.00 | 0.56 | 0.56 | 69 | 1015.9 |
| 20260503004809 | 5 | 117 | 3.2 | 4.8 | 0.00 | 0.56 | 0.56 | 67 | 1015.8 |
| 20260503004307 | 5 | 119 | 0.0 | 3.2 | 0.00 | 0.56 | 0.56 | 64 | 1015.7 |
| 20260503003804 | 5 | 99 | 0.0 | 3.2 | 0.00 | 0.56 | 0.56 | 62 | 1015.6 |
| 20260503003300 | 5 | 119 | 0.0 | 1.6 | 0.00 | 0.56 | 0.56 | 62 | 1015.7 |
| 20260503002757 | 5 | 89 | 0.0 | 3.2 | 0.00 | 0.56 | 0.56 | 61 | 1015.7 |
| 20260503002254 | 5 | 79 | 0.0 | 1.6 | 0.00 | 0.56 | 0.56 | 58 | 1015.7 |
| 20260503001750 | 5 | 55 | 0.0 | 3.2 | 0.00 | 0.56 | 0.56 | 58 | 1015.7 |
| 20260503001247 | 5 | 91 | 1.6 | 1.6 | 0.00 | 0.56 | 0.56 | 58 | 1015.5 |
| 20260503000745 | 5 | 66 | 0.0 | 3.2 | 0.00 | 0.56 | 0.56 | 57 | 1015.6 |
| 20260503000242 | 6 | 14 | 0.0 | 6.4 | 0.00 | 0.56 | 0.56 | 62 | 1015.7 |
| 20260502235738 | 6 | 63 | 1.6 | 1.6 | 0.00 | 0.56 | 0.56 | 57 | 1015.6 |
| 20260502235237 | 6 | 32 | 0.0 | 3.2 | 0.00 | 0.56 | 0.56 | 58 | 1015.4 |
| 20260502234732 | 6 | 45 | 3.2 | 4.8 | 0.00 | 0.56 | 0.56 | 55 | 1015.5 |
| 20260502234230 | 6 | 39 | 3.2 | 4.8 | 0.00 | 0.56 | 0.56 | 59 | 1015.7 |
| 20260502233726 | 6 | 233 | 4.8 | 6.4 | 0.00 | 0.56 | 0.56 | 55 | 1015.6 |
| 20260502233223 | 6 | 130 | 0.0 | 3.2 | 0.00 | 0.56 | 0.56 | 58 | 1015.6 |
| 20260502232718 | 6 | 49 | 9.7 | 11.3 | 0.00 | 0.56 | 0.56 | 55 | 1015.6 |
| 20260502232216 | 6 | 61 | 0.0 | 4.8 | 0.00 | 0.56 | 0.56 | 55 | 1015.5 |
| 20260502231712 | 6 | 60 | 4.8 | 4.8 | 0.00 | 0.56 | 0.56 | 57 | 1015.5 |
| 20260502231210 | 6 | 66 | 6.4 | 6.4 | 0.00 | 0.56 | 0.56 | 56 | 1015.6 |
| 20260502230709 | 6 | 62 | 3.2 | 4.8 | 0.00 | 0.56 | 0.56 | 58 | 1015.7 |
| 20260502230207 | 6 | 17 | 4.8 | 11.3 | 0.00 | 0.56 | 0.56 | 54 | 1015.6 |
| 20260502225702 | 6 | 58 | 6.4 | 9.7 | 0.00 | 0.56 | 0.56 | 56 | 1015.6 |
| 20260502225200 | 6 | 52 | 4.8 | 8.0 | 0.00 | 0.56 | 0.56 | 55 | 1015.6 |